www.pogodaiklimat.ru

Погода и климат >> Архив погоды >> Россия >> Ярославская область >> Пошехонье


ПОГОДА в Пошехонье

  • Прогноз погоды в Пошехонье
  • Монитор погоды в Пошехонье

АРХИВ ПОГОДЫ в Пошехонье

Время (UTC), дата Ветер
(напр.,м/с)
 
Видим.   Явления Облачность Т
(С)
Тd
(С)
f
(%)
Тe
(С)
Тes
(С)
Комфортность P
(гПа)
Po
(гПа)
Тmin
(С)
Tmax
(С)
R
(мм)
R24
(мм)
S
(см)
03 13.08 Ю 3 40 км 8/4 300 м
[Sc Ac trans]
+10.8 +6.5 75 +9 +9 1016.9 1002.7 +4.6
06 13.08 ЮВ 3 40 км 9/6 300 м
[Sc Ac trans]
+13.9 +9.3 74 +13 +14 1015.2 1001.1
09 13.08 Ю 3 40 км 10/0 2000 м
[Ac As]
+17.8 +11.8 68 +18 +21 1014.2 1000.3
12 13.08 Ю 2 40 км 10/0 2000 м
[Ac As]
+20.6 +14.0 66 +24 +26 комфорт 1013.2 999.5
15 13.08 штиль 0 9000 м слаб. дождь 10/0 2000 м
[As op]
+17.4 +14.9 85 +17 +18 1012.2 998.3 +21.1 0.5
18 13.08 ЮВ 2 4000 м слаб. дождь 10/10 420 м
[Frnb Ns]
+15.3 +13.7 90 +15 +15 1011.2 997.1
21 13.08 ЮВ 2 4000 м слаб. дождь 10/10 420 м
[Frnb Ns]
+15.6 +14.3 92 +15 +15 1008.7 994.9
00 14.08 ЮВ 3 2000 м сильн. дождь 10/10 400 м
[Frnb Ns]
+15.5 +14.2 92 +15 +15 1006.0 992.2
03 14.08 З 2 6000 м слаб. дождь 10/10 420 м
[Frnb Ns]
+15.7 +14.4 92 +16 +16 1006.6 992.8 +15.1 28
06 14.08 СЗ 2 40 км в посл. час дождь 10/10 480 м
[Sc]
+16.3 +14.7 90 +16 +16 1009.0 995.1
09 14.08 СЗ 2 40 км 10/10 540 м
[Sc]
+16.3 +14.0 86 +16 +16 1010.6 996.8
12 14.08 З 2 40 км 9/9 600 м
[Sc]
+18.0 +13.5 75 +19 +19 1012.3 998.5
15 14.08 ЮЗ 2 40 км 6/4 600 м
[Sc Ac trans]
+18.1 +12.8 71 +19 +19 1012.5 998.7 +18.8 0.5
18 14.08 Ю 1 50 км 4/0
[Ac trans]
+14.4 +12.4 88 +15 +15 1012.5 998.5
21 14.08 Ю 1 50 км 3/0
[Ac trans]
+14.5 +12.7 89 +15 +15 1012.3 998.3
00 15.08 штиль 0 50 км 5/0
[Ac trans]
+14.0 +12.6 91 +14 +14 1010.9 996.9
03 15.08 ЮВ 2 10 км слаб. дождь 10/10 360 м
[Frnb Ns]
+14.8 +13.7 93 +14 +14 1009.3 995.3 +13.7 5
06 15.08 ЮВ 4 40 км {дождь} 10/10 540 м
[Sc]
+15.3 +13.3 88 +14 +14 1005.2 991.4
09 15.08 Ю 4 40 км {дождь} 10/10 540 м
[Sc]
+16.6 +14.9 90 +16 +16 1004.0 990.3
12 15.08 З 5-11
{13}
40 км {дождь} 9/9 570 м
[Sc]
+16.3 +12.5 78 +15 +16 1008.9 995.0
15 15.08 З 3
{11}
40 км 6/6 570 м
[Sc]
+16.6 +12.3 76 +16 +17 1011.4 997.5 +17.7 0.7
18 15.08 ЮЗ 1 50 км 6/0 2000 м
[Ac trans]
+11.9 +10.1 89 +12 +12 1013.4 999.3
21 15.08 Ю 1 50 км 3/0 2000 м
[Ac trans]
+10.9 +9.6 92 +11 +11 1014.6 1000.4
00 16.08 штиль 0 50 км 3/0 2000 м
[Ac trans]
+6.5 +5.4 93 +5 +5 1015.9 1001.4
03 16.08 СВ 1 н/о н/о +6.6 +5.8 95 +5 +5 1016.5 1001.8 +4.5
06 16.08 ЮЗ 1 40 км 8/0 2000 м
[Ac trans Ci fib]
+15.6 +12.1 80 +16 +21 1016.3 1002.3
09 16.08 З 2 40 км 8/3 300 м
[Cu med, cong Ac trans Ci fib]
+18.6 +10.2 58 +20 +24 1015.8 1001.9
12 16.08 З 1 40 км 6/4 300 м
[Cu med, cong Ci fib]
+20.4 +11.1 55 +23 +28 комфорт 1015.5 1001.7
15 16.08 З 2 40 км 8/3 300 м
[Cu med, cong Ci fib]
+18.8 +10.1 57 +20 +21 1015.7 1001.9 +20.5
18 16.08 штиль 0 4000 м дымка 6/0 2000 м
[Ac trans]
+11.5 +9.9 90 +11 +11 1016.7 1002.5
21 16.08 штиль 0 2000 м дымка 3/0
[Ci fib]
+7.8 +6.6 92 +7 +7 1017.6 1003.2
00 17.08 штиль 0 4000 м ясно +5.8 +4.9 94 +5 +5 1018.5 1003.7
03 17.08 штиль 0 40 км 3/1 300 м
[Cu med, cong Ci fib]
+6.7 +6.0 95 +6 +6 1018.5 1004.0 +4.7
06 17.08 В 1 40 км 1/0
[Ci fib]
+18.1 +12.3 69 +19 +26 1018.5 1004.6
09 17.08 В 4 40 км 5/3 300 м
[Sc Ci fib]
+20.9 +9.2 47 +23 +27 комфорт 1018.2 1004.5
12 17.08 В 3 40 км 4/4 600 м
[Sc]
+22.0 +7.7 40 +23 +27 комфорт 1017.4 1003.5
15 17.08 В 2 40 км 4/1 600 м
[Sc Ac trans Ci fib]
+20.8 +8.1 44 +23 +24 комфорт 1016.9 1003.1 +22.1
18 17.08 В 1 50 км 5/0
[Ci fib]
+11.4 +9.3 87 +11 +11 1017.3 1003.1
21 17.08 СВ 1 50 км 5/0
[Ci fib]
+11.7 +9.5 86 +12 +12 1016.8 1002.4
00 18.08 СВ 2 50 км 6/0 2000 м
[Ac trans]
+12.2 +9.9 86 +11 +11 1015.9 1001.5
03 18.08 СВ 3 9000 м слаб. дождь 10/10 420 м
[Frnb Ns]
+12.7 +10.6 87 +11 +11 1014.5 1000.4 +9.7 0.0
06 18.08 СВ 3 8000 м слаб. дождь 10/10 450 м
[Frnb Ns]
+14.1 +12.3 89 +13 +13 1013.8 999.7
09 18.08 СВ 3 15 км слаб. дождь 10/10 450 м
[Frnb Ns]
+15.1 +13.3 89 +14 +14 1013.3 999.3
12 18.08 СВ 3 12 км слаб. дождь 10/10 420 м
[Frnb Ns]
+15.3 +13.7 90 +15 +15 1013.1 999.1
15 18.08 В 2 40 км {дождь} 10/10 400 м
[Sc]
+16.1 +14.4 90 +16 +16 1012.8 998.9 +16.1 5
18 18.08 В 2 50 км {дождь} 10/10 480 м
[Sc]
+16.4 +14.8 90 +16 +16 1012.9 999.0
21 18.08 ЮВ 2 50 км в посл. час гроза {ливн. осадки} 9/9 400 м
[Cb cap]
+16.9 +15.4 91 +17 +17 1012.8 999.0
00 19.08 В 2 50 км {гроза, ливн. осадки} 10/10 420 м
[Sc]
+17.0 +15.9 93 +17 +17 1013.4 999.4
03 19.08 ЮВ 1 500 м туман ?/? +16.6 +15.4 93 +17 +17 1013.5 999.6 +16.0 2
06 19.08 ЮЗ 2 40 км {туман} 10/10 480 м
[Sc]
+17.8 +15.8 88 +18 +18 1014.2 1000.4
09 19.08 З 2 40 км 5/5 300 м
[Sc]
+19.5 +15.8 79 +22 +27 комфорт 1014.6 1000.9
12 19.08 З 3 40 км 3/3 300 м
[Sc]
+21.0 +14.6 67 +24 +29 комфорт 1015.5 1001.8
15 19.08 ЮЗ 2 40 км 3/0
[Ci fib]
+21.5 +14.3 64 +24 +26 комфорт 1016.3 1002.4
18 19.08 Ю 1 4000 м дымка ясно +13.7 +11.9 89 +14 +14 1017.7 1003.6
21 19.08 ЮЗ 1 4000 м дымка ясно +11.9 +10.8 93 +12 +12 1018.8 1004.4

 

Местоположение метеостанции Пошехонье (Ярославская область, Россия): широта 58.48 долгота 39.13 высота над уровнем моря 118 м.

В архиве по умолчанию представлена погода в Пошехонье за последнюю неделю. Архивные данные за месяц целиком и за предыдущие месяцы, начиная с января 2011 года, Вы можете получить, выбрав интересующий диапазон дат из раскрывающегося списка и нажав кнопку "Ввод!".


*Определитесь, кто Вы:
робот инопланетянин человек

Внимание! Время в таблицах - всемирное. Для получения местного времени необходимо прибавить поправку, которая равна 3 ч.

Смотрите также архив погоды в соседних городах и на ближайших метеорологических станциях:

Погода в Владычном (Ярославская область, Россия) (42 км)
Погода в Рыбинске (Ярославская область, Россия) (50 км)
Погода в Тутаеве (Ярославская область, Россия) (69 км)
Погода в Данилове (Ярославская область, Россия) (69 км)
Погода в Борке (Ярославская область, Россия) (70 км)
Погода в Брейтово (Ярославская область, Россия) (77 км)
Погода в Большом Селе (Ярославская область, Россия) (85 км)
Погода в Мышкине (Ярославская область, Россия) (87 км)
Погода в Вологде (Вологодская область, Россия) (104 км)
Погода в Ярославле (Ярославская область, Россия) (105 км)

Пояснения к столбцам:

Ветер - указаны скорость ветра в м/с - средняя за 10 мин, порывы в срок и между сроками (в фигурных скобках) и направление, откуда дует ветер: С - северный, СВ - северо-восточный, В - восточный, ЮВ - юго-восточный, Ю - южный, ЮЗ - юго-западный, З - западный, СЗ - северо-западный.
Видимость - горизонтальная дальность видимости в метрах или километрах. При видимости от 1 до 10 км при отсутствии осадков обычно наблюдается дымка, при ухудшении видимости до 1 км и менее - туман. В сухую погоду видимость может ухудшаться дымом, пылью или мглою.
Явления - указаны атмосферные явления, наблюдавшиеся в срок или в последний час перед сроком; фигурными скобками обозначены явления, наблюдавшиеся между сроками (за 1-3 часа до срока); квадратными скобками обозначены град или гололедные отложения с указанием их диаметра в мм.
Облачность - указаны через наклонную черту общая и нижняя облачность в баллах и высота нижней границы облаков в метрах; квадратными скобками обозначены формы облаков: Ci - перистые, Cs - перисто-слоистые, Cc - перисто-кучевые, Ac - высококучевые, As - высокослоистые, Sc - слоисто-кучевые, Ns - слоисто-дождевые, Cu - кучевые, Cb - кучево-дождевые. Подробнее классификацию облаков см. в Атласе облаков (PDF).
T - Температура воздуха - температура, измеренная на высоте 2 м над землей.
Td - Температура точки росы - температура, при понижении до которой содержащийся в воздухе водяной пар достигнет насыщения.
f - Относительная влажность воздуха - влажноcть воздуха, измеренная на высоте 2 м над землей.
Te - Эффективная температура - температура, которую ощущает одетый по сезону человек в тени. Характеристика душности погоды. При расчете учитывается влияние влажности воздуха и скорости ветра на теплоощущения человека.
Tes - Эффективная температура на солнце - температура, которую ощущает человек, с поправкой на солнечный нагрев. Характеристика знойности погоды. Зависит от высоты солнца над горизонтом, облачности и скорости ветра. Ночью, в пасмурную погоду, а также при ветре 12 м/с и более поправка равна нулю.
P - Атмосферное давление - приведенное к уровню моря атмосферное давление.
Po - Атмосферное давление - измеренное на уровне метеостанции атмосферное давление.
Tmin - Минимальная температура - минимум температуры воздуха на высоте 2 м над землей.
Tmax - Максимальная температура - максимум температуры воздуха на высоте 2 м над землей.
R - Количество осадков - Количество выпавших осадков за период времени, мм. При наведении курсора мыши на число - период времени, за который выпало указанное количество осадков.
R24 - Количество осадков - Количество выпавших осадков за 24 часа, мм.
S - Снежный покров - Высота снежного покрова, см. При наведении курсора мыши на число - состояние снежного покрова и степень покрытия местности в баллах.